Weather History for Jaipur, India

Change the Weather History Date:

Tuesday, March 4, 2014

  Actual Average Record
Temperature  
Mean Temperature 67 °F -  
Max Temperature 79 °F - - ()
Min Temperature 55 °F - - ()
Cooling Degree Days 2    
Growing Degree Days 17 (Base 50)    
Moisture  
Dew Point 46 °F    
Average Humidity 49    
Maximum Humidity 77    
Minimum Humidity 16    
Precipitation  
Precipitation 0.00 in - - ()
Sea Level Pressure  
Sea Level Pressure 30.04 in    
Wind  
Wind Speed 1 mph ()    
Max Wind Speed 6 mph    
Max Gust Speed 17 mph    
Visibility 1.5 miles    
Events      
T = Trace of Precipitation, MM = Missing Value Source: Averaged Metar Reports

Daily Weather History Graph

Daily Weather History Graph

Search for Another Location

Airport:

Trip Planner

Search our weather history database for the weather conditions in past years. The results will help you decide how hot, cold, wet, or windy it might be!

Date:

Astronomy

Mar. 04, 2014 Rise Set
Actual Time 6:48 AM IST 6:29 PM IST
Civil Twilight 6:24 AM IST 6:52 PM IST
Nautical Twilight 5:57 AM IST 7:19 PM IST
Astronomical Twilight 5:31 AM IST 7:46 PM IST
Moon 8:37 AM IST (3/4) 9:43 PM IST (3/4)
Length of Visible Light 12h 27m
Length of Day
11h 41m
Waxing Crescent, 11% of the Moon is Illuminated
Mar 4
Waxing Crescent
Mar 8
First Quarter
Mar 16
Full
Mar 24
Last Quarter
Mar 31
New

Hourly Weather History & Observations

Time (IST) Temp. Dew Point Humidity Pressure Visibility Wind Dir Wind Speed Gust Speed Precip Events Conditions
12:00 AM 62.6 °F 48.2 °F 59% 30.04 in 1.2 mi Calm Calm - N/A   Haze
2:00 AM 59.0 °F 50.0 °F 72% 30.01 in 1.2 mi Calm Calm - N/A   Haze
2:30 AM 59 °F 47 °F 56% 29.99 in 1 mi Calm Calm - -   Haze
2:30 AM 59.0 °F 48.2 °F 67% 30.01 in 1.2 mi Calm Calm - N/A   Haze
3:00 AM 57.2 °F 50.0 °F 77% 30.01 in 1.2 mi Calm Calm - N/A   Haze
4:00 AM 59.0 °F 48.2 °F 67% 30.01 in 1.2 mi Calm Calm - N/A   Haze
5:00 AM 59.0 °F 48.2 °F 67% 30.01 in 1.2 mi Calm Calm - N/A   Haze
5:30 AM 58 °F 49 °F 65% 30.01 in 1 mi Calm Calm - -   Haze
5:30 AM 57.2 °F 50.0 °F 77% 30.04 in 1.2 mi Calm Calm - N/A   Haze
6:00 AM 57.2 °F 50.0 °F 77% 30.04 in 1.2 mi Calm Calm - N/A   Scattered Clouds
6:30 AM 59.0 °F 48.2 °F 67% 30.06 in 1.2 mi Calm Calm - N/A   Scattered Clouds
7:00 AM 59.0 °F 50.0 °F 72% 30.06 in 1.2 mi Calm Calm - N/A   Mostly Cloudy
7:30 AM 57.2 °F 50.0 °F 77% 30.06 in 1.2 mi Calm Calm - N/A   Scattered Clouds
8:00 AM 59.0 °F 51.8 °F 77% 30.09 in 1.0 mi Variable 1.2 mph - N/A   Haze
8:30 AM 62 °F 51 °F 57% 30.06 in 1 mi NNE 3.5 mph - -   Haze
9:00 AM 66.2 °F 44.6 °F 46% 30.09 in 1.0 mi Calm Calm - N/A   Haze
10:00 AM 69.8 °F 46.4 °F 43% 30.12 in 1.6 mi ESE 5.8 mph - N/A   Haze
11:00 AM 71.6 °F 46.4 °F 41% 30.12 in 2.2 mi SSE 4.6 mph - N/A   Haze
11:30 AM 73 °F 48 °F 30% 30.06 in 2 mi SW 3.5 mph - -   Haze
12:00 PM 73.4 °F 41.0 °F 31% 30.09 in 2.5 mi Variable 2.3 mph - N/A   Haze
1:00 PM 75.2 °F 42.8 °F 31% 30.06 in 2.5 mi SSE 5.8 mph - N/A   Haze
2:00 PM 77.0 °F 39.2 °F 26% 30.04 in 2.5 mi Variable 3.5 mph - N/A   Haze
2:30 PM 77 °F 39 °F 16% 29.98 in 2 mi SW 5.8 mph - -   Haze
3:00 PM 77.0 °F 37.4 °F 24% 30.04 in 2.5 mi South 5.8 mph 17.3 mph N/A   Haze
4:00 PM 77.0 °F 37.4 °F 24% 30.01 in 2.5 mi South 5.8 mph - N/A   Haze
5:00 PM 77.0 °F 39.2 °F 26% 30.01 in 2.5 mi SW 5.8 mph - N/A   Haze
5:30 PM 77 °F 47 °F 24% 29.94 in 1 mi NE 4.6 mph - -   Haze
6:00 PM 75.2 °F 41.0 °F 29% 30.01 in 2.5 mi SSW 3.5 mph - N/A   Haze
7:00 PM 73.4 °F 42.8 °F 33% 30.04 in 2.2 mi Variable 2.3 mph - N/A   Haze
8:30 PM 69 °F 43 °F 28% 29.99 in 1 mi East 3.5 mph - -   Haze
9:00 PM 68.0 °F 46.4 °F 46% 30.04 in 1.2 mi Calm Calm - N/A   Smoke
10:00 PM 68.0 °F 46.4 °F 46% 30.04 in 1.2 mi Calm Calm - N/A   Smoke
11:00 PM 68.0 °F 46.4 °F 46% 30.06 in 1.2 mi East 5.8 mph - N/A   Smoke
11:30 PM 66 °F 47 °F 39% 30.01 in 1 mi East 4.6 mph - -   Smoke